Hourly Data Report for October 13, 2016

All times are specified in Local Standard Time (LST). Add 1 hour to adjust for Daylight Saving Time where and when it is observed.

RANKIN INLET A
NUNAVUT

62°48'38.000" N
92°06'53.000" W
32.30 m
2303405
71083
YRT

Download Data

Hourly Data (October 2016)
Hourly Data Report for October 13, 2016
Temp Definition
°C
Dew Point Temp Definition
°C
Rel Hum Definition
%
Wind Dir Definition
10's deg

Wind Spd Definition
km/h
Visibility Definition
km
Stn Press Definition
kPa
Hmdx Definition


Wind Chill Definition


Weather Definition


TIME
00:00 Legend Double Dagger -6.2 -8.8 82 4 19 24.1 99.62   -13 Snow
01:00 Legend Double Dagger -7.5 -9.8 84 35 19 24.1 99.61   -15 LegendNANA
02:00 Legend Double Dagger -6.6 -9.5 80 35 21 24.1 99.62   -14 LegendNANA
03:00 Legend Double Dagger -7.7 -9.7 86 35 21 24.1 99.63   -15 Mainly Clear
04:00 Legend Double Dagger -7.6 -9.3 88 34 24 24.1 99.65   -16 LegendNANA
05:00 Legend Double Dagger -8.0 -9.4 90 33 22 24.1 99.67   -16 LegendNANA
06:00 Legend Double Dagger -8.4 -10.3 86 32 19 24.1 99.68   -16 Mainly Clear
07:00 Legend Double Dagger -8.9 -10.1 91 33 17 24.1 99.68   -16 LegendNANA
08:00 Legend Double Dagger -6.9 -8.7 87 34 17 24.1 99.66   -13 LegendNANA
09:00 Legend Double Dagger -6.5 -8.6 85 34 22 24.1 99.67   -14 Mostly Cloudy
10:00 Legend Double Dagger -6.3 -8.7 83 33 22 24.1 99.67   -14 LegendNANA
11:00 Legend Double Dagger -5.6 -8.5 80 34 23 24.1 99.67   -13 LegendNANA
12:00 Legend Double Dagger -5.3 -8.6 78 32 25 24.1 99.69   -13 Mostly Cloudy
13:00 Legend Double Dagger -5.3 -8.2 80 33 24 24.1 99.72   -13 LegendNANA
14:00 Legend Double Dagger -5.7 -8.8 79 32 30 24.1 99.75   -14 LegendNANA
15:00 Legend Double Dagger -5.4 -8.5 79 32 32 24.1 99.76   -14 Mostly Cloudy
16:00 Legend Double Dagger -5.5 -8.4 80 32 31 24.1 99.75   -14 LegendNANA
17:00 Legend Double Dagger -5.9 -8.2 84 32 32 16.1 99.78   -14 LegendNANA
18:00 Legend Double Dagger -5.9 -8.0 85 32 30 16.1 99.75   -14 Snow
19:00 Legend Double Dagger -6.0 -7.7 88 32 35 3.2 99.71   -15 Snow,Blowing Snow
20:00 Legend Double Dagger -5.8 -7.5 88 33 46 9.7 99.70   -16 Snow,Blowing Snow
21:00 Legend Double Dagger -4.2 -5.6 90 35 41 24.1 99.70   -13 Snow,Blowing Snow
22:00 Legend Double Dagger -3.6 -5.6 86 36 40 24.1 99.76   -12 Snow,Blowing Snow
23:00 Legend Double Dagger -5.3 -6.7 90 34 32 24.1 99.77   -14 LegendNANA

Notes on Data Quality.

Legend

  • E = Estimated
  • M = Missing
  • NA = Not Available
  • ‡ = Partner data that is not subject to review by the National Climate Archives
Date modified: